owner,sensor,date,latitude,longitude,vertical_datum,wind_speed,wind_to_direction,wind_speed_of_gust,qcFlag 
ADCP,ioos:station:wmo:42362:1,2008-01-01T00:00:00Z,27.7950,-90.6480,122.0,4.0,70.0,99.0,'11111222,11111222,11144222' 
ADCP,ioos:station:wmo:42362:1,2008-01-01T01:00:00Z,27.7950,-90.6480,122.0,1.0,300.0,99.0,'11111222,11111222,11144222' 
ADCP,ioos:station:wmo:42362:1,2008-01-01T02:00:00Z,27.7950,-90.6480,122.0,3.0,310.0,99.0,'11111222,11111222,11144222' 
ADCP,ioos:station:wmo:42362:1,2008-01-01T03:00:00Z,27.7950,-90.6480,122.0,5.0,310.0,99.0,'11111222,11111222,11144222' 
ADCP,ioos:station:wmo:42362:1,2008-01-01T04:00:00Z,27.7950,-90.6480,122.0,3.0,320.0,99.0,'11111222,11111222,11144222' 
ADCP,ioos:station:wmo:42362:1,2008-01-01T05:00:00Z,27.7950,-90.6480,122.0,7.0,330.0,99.0,'11111222,11111222,11144222' 
ADCP,ioos:station:wmo:42362:1,2008-01-01T06:00:00Z,27.7950,-90.6480,122.0,8.0,320.0,99.0,'11111222,11111222,11144222' 
ADCP,ioos:station:wmo:42362:1,2008-01-01T07:00:00Z,27.7950,-90.6480,122.0,10.0,320.0,99.0,'11111222,11111222,11144222' 
ADCP,ioos:station:wmo:42362:1,2008-01-01T08:00:00Z,27.7950,-90.6480,122.0,9.0,320.0,99.0,'11111222,11111222,11144222' 
ADCP,ioos:station:wmo:42362:1,2008-01-01T09:00:00Z,27.7950,-90.6480,122.0,13.0,330.0,99.0,'11111222,11111222,11144222' 
ADCP,ioos:station:wmo:42362:1,2008-01-01T10:00:00Z,27.7950,-90.6480,122.0,12.0,320.0,99.0,'11111222,11111222,11144222' 
ADCP,ioos:station:wmo:42362:1,2008-01-01T11:00:00Z,27.7950,-90.6480,122.0,16.0,250.0,99.0,'11111222,11111222,11144222' 
ADCP,ioos:station:wmo:42362:1,2008-01-01T12:00:00Z,27.7950,-90.6480,122.0,20.0,350.0,99.0,'11111222,11111222,11144222' 
ADCP,ioos:station:wmo:42362:1,2008-01-01T13:00:00Z,27.7950,-90.6480,122.0,20.0,340.0,99.0,'11111222,11111222,11144222' 
ADCP,ioos:station:wmo:42362:1,2008-01-01T14:00:00Z,27.7950,-90.6480,122.0,20.0,340.0,99.0,'11111222,11111222,11144222' 
ADCP,ioos:station:wmo:42362:1,2008-01-01T15:00:00Z,27.7950,-90.6480,122.0,21.0,340.0,99.0,'11111222,11111222,11144222' 
ADCP,ioos:station:wmo:42362:1,2008-01-01T16:00:00Z,27.7950,-90.6480,122.0,20.0,340.0,99.0,'11111222,11111222,11144222' 
ADCP,ioos:station:wmo:42362:1,2008-01-01T17:00:00Z,27.7950,-90.6480,122.0,19.0,340.0,99.0,'11111222,11111222,11144222' 
ADCP,ioos:station:wmo:42362:1,2008-01-01T18:00:00Z,27.7950,-90.6480,122.0,19.0,330.0,99.0,'11111222,11111222,11144222' 
ADCP,ioos:station:wmo:42362:1,2008-01-01T19:00:00Z,27.7950,-90.6480,122.0,16.0,330.0,99.0,'11111222,11111222,11144222' 
ADCP,ioos:station:wmo:42362:1,2008-01-01T20:00:00Z,27.7950,-90.6480,122.0,15.0,340.0,99.0,'11111222,11111222,11144222' 
ADCP,ioos:station:wmo:42362:1,2008-01-01T21:00:00Z,27.7950,-90.6480,122.0,17.0,320.0,99.0,'11111222,11111222,11144222' 
ADCP,ioos:station:wmo:42362:1,2008-01-01T22:00:00Z,27.7950,-90.6480,122.0,14.0,350.0,99.0,'11111222,11111222,11144222' 
ADCP,ioos:station:wmo:42362:1,2008-01-01T23:00:00Z,27.7950,-90.6480,122.0,17.0,340.0,99.0,'11111222,11111222,11144222' 
ADCP,ioos:station:wmo:42362:1,2008-01-02T00:00:00Z,27.7950,-90.6480,122.0,18.0,340.0,99.0,'11111222,11111222,11144222' 
ADCP,ioos:station:wmo:42362:1,2008-01-02T01:00:00Z,27.7950,-90.6480,122.0,19.0,360.0,99.0,'11111222,11144222,11144222' 
ADCP,ioos:station:wmo:42362:1,2008-01-02T02:00:00Z,27.7950,-90.6480,122.0,10.0,320.0,99.0,'11111222,11111222,11144222' 
ADCP,ioos:station:wmo:42362:1,2008-01-02T03:00:00Z,27.7950,-90.6480,122.0,17.0,330.0,99.0,'11111222,11111222,11144222' 
ADCP,ioos:station:wmo:42362:1,2008-01-02T04:00:00Z,27.7950,-90.6480,122.0,17.0,320.0,99.0,'11111222,11111222,11144222' 
ADCP,ioos:station:wmo:42362:1,2008-01-02T05:00:00Z,27.7950,-90.6480,122.0,17.0,330.0,99.0,'11111222,11111222,11144222' 
ADCP,ioos:station:wmo:42362:1,2008-01-02T06:00:00Z,27.7950,-90.6480,122.0,14.0,320.0,99.0,'11111222,11111222,11144222' 
ADCP,ioos:station:wmo:42362:1,2008-01-02T07:00:00Z,27.7950,-90.6480,122.0,16.0,320.0,99.0,'11111222,11111222,11144222' 
ADCP,ioos:station:wmo:42362:1,2008-01-02T08:00:00Z,27.7950,-90.6480,122.0,15.0,320.0,99.0,'11111222,11111222,11144222' 
ADCP,ioos:station:wmo:42362:1,2008-01-02T09:00:00Z,27.7950,-90.6480,122.0,19.0,310.0,99.0,'11111222,11111222,11144222' 
ADCP,ioos:station:wmo:42362:1,2008-01-02T10:00:00Z,27.7950,-90.6480,122.0,16.0,320.0,99.0,'11111222,11111222,11144222' 
ADCP,ioos:station:wmo:42362:1,2008-01-02T11:00:00Z,27.7950,-90.6480,122.0,16.0,330.0,99.0,'11111222,11111222,11144222' 
ADCP,ioos:station:wmo:42362:1,2008-01-02T12:00:00Z,27.7950,-90.6480,122.0,18.0,330.0,99.0,'11111222,11111222,11144222' 
ADCP,ioos:station:wmo:42362:1,2008-01-02T13:00:00Z,27.7950,-90.6480,122.0,18.0,330.0,99.0,'11111222,11111222,11144222' 
ADCP,ioos:station:wmo:42362:1,2008-01-02T14:00:00Z,27.7950,-90.6480,122.0,15.0,330.0,99.0,'11111222,11111222,11144222' 
ADCP,ioos:station:wmo:42362:1,2008-01-02T15:00:00Z,27.7950,-90.6480,122.0,15.0,330.0,99.0,'11111222,11111222,11144222' 
ADCP,ioos:station:wmo:42362:1,2008-01-02T16:00:00Z,27.7950,-90.6480,122.0,16.0,320.0,99.0,'11111222,11111222,11144222' 
ADCP,ioos:station:wmo:42362:1,2008-01-02T17:00:00Z,27.7950,-90.6480,122.0,14.0,320.0,99.0,'11111222,11111222,11144222' 
ADCP,ioos:station:wmo:42362:1,2008-01-02T18:00:00Z,27.7950,-90.6480,122.0,16.0,330.0,99.0,'11111222,11111222,11144222' 
ADCP,ioos:station:wmo:42362:1,2008-01-02T19:00:00Z,27.7950,-90.6480,122.0,15.0,340.0,99.0,'11111222,11111222,11144222' 
ADCP,ioos:station:wmo:42362:1,2008-01-02T20:00:00Z,27.7950,-90.6480,122.0,14.0,330.0,99.0,'11111222,11111222,11144222' 
ADCP,ioos:station:wmo:42362:1,2008-01-02T21:00:00Z,27.7950,-90.6480,122.0,13.0,340.0,99.0,'11111222,11111222,11144222' 
ADCP,ioos:station:wmo:42362:1,2008-01-02T22:00:00Z,27.7950,-90.6480,122.0,9.0,320.0,99.0,'11111222,11111222,11144222' 
ADCP,ioos:station:wmo:42362:1,2008-01-02T23:00:00Z,27.7950,-90.6480,122.0,14.0,360.0,99.0,'11111222,11144222,11144222' 
ADCP,ioos:station:wmo:42362:1,2008-01-03T00:00:00Z,27.7950,-90.6480,122.0,16.0,340.0,99.0,'11111222,11111222,11144222' 
ADCP,ioos:station:wmo:42362:1,2008-01-03T01:00:00Z,27.7950,-90.6480,122.0,17.0,350.0,99.0,'11111222,11111222,11144222' 
ADCP,ioos:station:wmo:42362:1,2008-01-03T02:00:00Z,27.7950,-90.6480,122.0,12.0,10.0,99.0,'11111222,11111222,11144222' 
ADCP,ioos:station:wmo:42362:1,2008-01-03T03:00:00Z,27.7950,-90.6480,122.0,18.0,10.0,99.0,'11111222,11111222,11144222' 
ADCP,ioos:station:wmo:42362:1,2008-01-03T04:00:00Z,27.7950,-90.6480,122.0,16.0,10.0,99.0,'11111222,11111222,11144222' 
ADCP,ioos:station:wmo:42362:1,2008-01-03T05:00:00Z,27.7950,-90.6480,122.0,13.0,360.0,99.0,'11111222,11144222,11144222' 
ADCP,ioos:station:wmo:42362:1,2008-01-03T06:00:00Z,27.7950,-90.6480,122.0,13.0,10.0,99.0,'11111222,11111222,11144222' 
ADCP,ioos:station:wmo:42362:1,2008-01-03T07:00:00Z,27.7950,-90.6480,122.0,11.0,20.0,99.0,'11111222,11111222,11144222' 
ADCP,ioos:station:wmo:42362:1,2008-01-03T08:00:00Z,27.7950,-90.6480,122.0,10.0,360.0,99.0,'11111222,11144222,11144222' 
ADCP,ioos:station:wmo:42362:1,2008-01-03T09:00:00Z,27.7950,-90.6480,122.0,11.0,10.0,99.0,'11111222,11111222,11144222' 
ADCP,ioos:station:wmo:42362:1,2008-01-03T10:00:00Z,27.7950,-90.6480,122.0,13.0,10.0,99.0,'11111222,11111222,11144222' 
ADCP,ioos:station:wmo:42362:1,2008-01-03T11:00:00Z,27.7950,-90.6480,122.0,10.0,360.0,99.0,'11111222,11144222,11144222' 
ADCP,ioos:station:wmo:42362:1,2008-01-03T12:00:00Z,27.7950,-90.6480,122.0,11.0,20.0,99.0,'11111222,11111222,11144222' 
ADCP,ioos:station:wmo:42362:1,2008-01-03T13:00:00Z,27.7950,-90.6480,122.0,12.0,30.0,99.0,'11111222,11111222,11144222' 
ADCP,ioos:station:wmo:42362:1,2008-01-03T14:00:00Z,27.7950,-90.6480,122.0,12.0,20.0,99.0,'11111222,11111222,11144222' 
ADCP,ioos:station:wmo:42362:1,2008-01-03T15:00:00Z,27.7950,-90.6480,122.0,9.0,20.0,99.0,'11111222,11111222,11144222' 
ADCP,ioos:station:wmo:42362:1,2008-01-03T16:00:00Z,27.7950,-90.6480,122.0,8.0,30.0,99.0,'11111222,11111222,11144222' 
ADCP,ioos:station:wmo:42362:1,2008-01-03T17:00:00Z,27.7950,-90.6480,122.0,4.0,30.0,99.0,'11111222,11111222,11144222' 
ADCP,ioos:station:wmo:42362:1,2008-01-03T18:00:00Z,27.7950,-90.6480,122.0,10.0,30.0,99.0,'11111222,11111222,11144222' 
ADCP,ioos:station:wmo:42362:1,2008-01-03T19:00:00Z,27.7950,-90.6480,122.0,8.0,10.0,99.0,'11111222,11111222,11144222' 
ADCP,ioos:station:wmo:42362:1,2008-01-03T20:00:00Z,27.7950,-90.6480,122.0,8.0,360.0,99.0,'11111222,11144222,11144222' 
ADCP,ioos:station:wmo:42362:1,2008-01-03T21:00:00Z,27.7950,-90.6480,122.0,10.0,20.0,99.0,'11111222,11111222,11144222' 
ADCP,ioos:station:wmo:42362:1,2008-01-03T22:00:00Z,27.7950,-90.6480,122.0,9.0,20.0,99.0,'11111222,11111222,11144222' 
ADCP,ioos:station:wmo:42362:1,2008-01-03T23:00:00Z,27.7950,-90.6480,122.0,9.0,20.0,99.0,'11111222,11111222,11144222' 
ADCP,ioos:station:wmo:42362:1,2008-01-04T00:00:00Z,27.7950,-90.6480,122.0,5.0,10.0,99.0,'11111222,11111222,11144222' 
ADCP,ioos:station:wmo:42362:1,2008-01-04T01:00:00Z,27.7950,-90.6480,122.0,10.0,30.0,99.0,'11111222,11111222,11144222' 
ADCP,ioos:station:wmo:42362:1,2008-01-04T02:00:00Z,27.7950,-90.6480,122.0,9.0,50.0,99.0,'11111222,11111222,11144222' 
ADCP,ioos:station:wmo:42362:1,2008-01-04T03:00:00Z,27.7950,-90.6480,122.0,12.0,30.0,99.0,'11111222,11111222,11144222' 
ADCP,ioos:station:wmo:42362:1,2008-01-04T04:00:00Z,27.7950,-90.6480,122.0,9.0,60.0,99.0,'11111222,11111222,11144222' 
ADCP,ioos:station:wmo:42362:1,2008-01-04T05:00:00Z,27.7950,-90.6480,122.0,9.0,100.0,99.0,'11111222,11111222,11144222' 
ADCP,ioos:station:wmo:42362:1,2008-01-04T06:00:00Z,27.7950,-90.6480,122.0,8.0,80.0,99.0,'11111222,11111222,11144222' 
ADCP,ioos:station:wmo:42362:1,2008-01-04T07:00:00Z,27.7950,-90.6480,122.0,4.0,120.0,99.0,'11111222,11111222,11144222' 
ADCP,ioos:station:wmo:42362:1,2008-01-04T08:00:00Z,27.7950,-90.6480,122.0,5.0,90.0,99.0,'11111222,11111222,11144222' 
ADCP,ioos:station:wmo:42362:1,2008-01-04T09:00:00Z,27.7950,-90.6480,122.0,3.0,90.0,99.0,'11111222,11111222,11144222' 
ADCP,ioos:station:wmo:42362:1,2008-01-04T10:00:00Z,27.7950,-90.6480,122.0,5.0,80.0,99.0,'11111222,11111222,11144222' 
ADCP,ioos:station:wmo:42362:1,2008-01-04T11:00:00Z,27.7950,-90.6480,122.0,8.0,70.0,99.0,'11111222,11111222,11144222' 
ADCP,ioos:station:wmo:42362:1,2008-01-04T12:00:00Z,27.7950,-90.6480,122.0,9.0,80.0,99.0,'11111222,11111222,11144222' 
ADCP,ioos:station:wmo:42362:1,2008-01-04T13:00:00Z,27.7950,-90.6480,122.0,11.0,70.0,99.0,'11111222,11111222,11144222' 
ADCP,ioos:station:wmo:42362:1,2008-01-04T14:00:00Z,27.7950,-90.6480,122.0,12.0,80.0,99.0,'11111222,11111222,11144222' 
ADCP,ioos:station:wmo:42362:1,2008-01-04T15:00:00Z,27.7950,-90.6480,122.0,14.0,70.0,99.0,'11111222,11111222,11144222' 
ADCP,ioos:station:wmo:42362:1,2008-01-04T16:00:00Z,27.7950,-90.6480,122.0,14.0,70.0,99.0,'11111222,11111222,11144222' 
ADCP,ioos:station:wmo:42362:1,2008-01-04T17:00:00Z,27.7950,-90.6480,122.0,13.0,80.0,99.0,'11111222,11111222,11144222' 
ADCP,ioos:station:wmo:42362:1,2008-01-04T18:00:00Z,27.7950,-90.6480,122.0,11.0,80.0,99.0,'11111222,11111222,11144222' 
ADCP,ioos:station:wmo:42362:1,2008-01-04T19:00:00Z,27.7950,-90.6480,122.0,12.0,80.0,99.0,'11111222,11111222,11144222' 
ADCP,ioos:station:wmo:42362:1,2008-01-04T20:00:00Z,27.7950,-90.6480,122.0,13.0,80.0,99.0,'11111222,11111222,11144222' 
ADCP,ioos:station:wmo:42362:1,2008-01-04T21:00:00Z,27.7950,-90.6480,122.0,13.0,80.0,99.0,'11111222,11111222,11144222' 
ADCP,ioos:station:wmo:42362:1,2008-01-04T22:00:00Z,27.7950,-90.6480,122.0,14.0,90.0,99.0,'11111222,11111222,11144222' 
ADCP,ioos:station:wmo:42362:1,2008-01-04T23:00:00Z,27.7950,-90.6480,122.0,14.0,80.0,99.0,'11111222,11111222,11144222' 
ADCP,ioos:station:wmo:42362:1,2008-01-05T00:00:00Z,27.7950,-90.6480,122.0,16.0,80.0,99.0,'11111222,11111222,11144222' 
ADCP,ioos:station:wmo:42362:1,2008-01-05T01:00:00Z,27.7950,-90.6480,122.0,15.0,90.0,99.0,'11111222,11111222,11144222' 
ADCP,ioos:station:wmo:42362:1,2008-01-05T02:00:00Z,27.7950,-90.6480,122.0,13.0,80.0,99.0,'11111222,11111222,11144222' 
ADCP,ioos:station:wmo:42362:1,2008-01-05T03:00:00Z,27.7950,-90.6480,122.0,15.0,90.0,99.0,'11111222,11111222,11144222' 
ADCP,ioos:station:wmo:42362:1,2008-01-05T04:00:00Z,27.7950,-90.6480,122.0,15.0,80.0,99.0,'11111222,11111222,11144222' 
ADCP,ioos:station:wmo:42362:1,2008-01-05T05:00:00Z,27.7950,-90.6480,122.0,14.0,100.0,99.0,'11111222,11111222,11144222' 
ADCP,ioos:station:wmo:42362:1,2008-01-05T06:00:00Z,27.7950,-90.6480,122.0,15.0,80.0,99.0,'11111222,11111222,11144222' 
ADCP,ioos:station:wmo:42362:1,2008-01-05T07:00:00Z,27.7950,-90.6480,122.0,15.0,100.0,99.0,'11111222,11111222,11144222' 
ADCP,ioos:station:wmo:42362:1,2008-01-05T08:00:00Z,27.7950,-90.6480,122.0,12.0,100.0,99.0,'11111222,11111222,11144222' 
ADCP,ioos:station:wmo:42362:1,2008-01-05T09:00:00Z,27.7950,-90.6480,122.0,13.0,90.0,99.0,'11111222,11111222,11144222' 
ADCP,ioos:station:wmo:42362:1,2008-01-05T10:00:00Z,27.7950,-90.6480,122.0,13.0,110.0,99.0,'11111222,11111222,11144222' 
ADCP,ioos:station:wmo:42362:1,2008-01-05T11:00:00Z,27.7950,-90.6480,122.0,7.0,160.0,99.0,'11111222,11111222,11144222' 
ADCP,ioos:station:wmo:42362:1,2008-01-05T12:00:00Z,27.7950,-90.6480,122.0,7.0,100.0,99.0,'11111222,11111222,11144222' 
ADCP,ioos:station:wmo:42362:1,2008-01-05T13:00:00Z,27.7950,-90.6480,122.0,5.0,120.0,99.0,'11111222,11111222,11144222' 
ADCP,ioos:station:wmo:42362:1,2008-01-05T14:00:00Z,27.7950,-90.6480,122.0,6.0,100.0,99.0,'11111222,11111222,11144222' 
ADCP,ioos:station:wmo:42362:1,2008-01-05T15:00:00Z,27.7950,-90.6480,122.0,4.0,110.0,99.0,'11111222,11111222,11144222' 
ADCP,ioos:station:wmo:42362:1,2008-01-05T16:00:00Z,27.7950,-90.6480,122.0,5.0,130.0,99.0,'11111222,11111222,11144222' 
ADCP,ioos:station:wmo:42362:1,2008-01-05T17:00:00Z,27.7950,-90.6480,122.0,8.0,110.0,99.0,'11111222,11111222,11144222' 
ADCP,ioos:station:wmo:42362:1,2008-01-05T18:00:00Z,27.7950,-90.6480,122.0,5.0,120.0,99.0,'11111222,11111222,11144222' 
ADCP,ioos:station:wmo:42362:1,2008-01-05T19:00:00Z,27.7950,-90.6480,122.0,4.0,150.0,99.0,'11111222,11111222,11144222' 
ADCP,ioos:station:wmo:42362:1,2008-01-05T20:00:00Z,27.7950,-90.6480,122.0,6.0,150.0,99.0,'11111222,11111222,11144222' 
ADCP,ioos:station:wmo:42362:1,2008-01-05T21:00:00Z,27.7950,-90.6480,122.0,6.0,150.0,99.0,'11111222,11111222,11144222' 
ADCP,ioos:station:wmo:42362:1,2008-01-05T22:00:00Z,27.7950,-90.6480,122.0,4.0,120.0,99.0,'11111222,11111222,11144222' 
ADCP,ioos:station:wmo:42362:1,2008-01-05T23:00:00Z,27.7950,-90.6480,122.0,5.0,100.0,99.0,'11111222,11111222,11144222' 
ADCP,ioos:station:wmo:42362:1,2008-01-06T00:00:00Z,27.7950,-90.6480,122.0,8.0,80.0,99.0,'11111222,11111222,11144222' 
ADCP,ioos:station:wmo:42362:1,2008-01-06T01:00:00Z,27.7950,-90.6480,122.0,8.0,90.0,99.0,'11111222,11111222,11144222' 
ADCP,ioos:station:wmo:42362:1,2008-01-06T02:00:00Z,27.7950,-90.6480,122.0,10.0,90.0,99.0,'11111222,11111222,11144222' 
ADCP,ioos:station:wmo:42362:1,2008-01-06T03:00:00Z,27.7950,-90.6480,122.0,10.0,100.0,99.0,'11111222,11111222,11144222' 
ADCP,ioos:station:wmo:42362:1,2008-01-06T04:00:00Z,27.7950,-90.6480,122.0,9.0,100.0,99.0,'11111222,11111222,11144222' 
ADCP,ioos:station:wmo:42362:1,2008-01-06T05:00:00Z,27.7950,-90.6480,122.0,10.0,100.0,99.0,'11111222,11111222,11144222' 
ADCP,ioos:station:wmo:42362:1,2008-01-06T06:00:00Z,27.7950,-90.6480,122.0,8.0,100.0,99.0,'11111222,11111222,11144222' 
ADCP,ioos:station:wmo:42362:1,2008-01-06T07:00:00Z,27.7950,-90.6480,122.0,11.0,150.0,99.0,'11111222,11111222,11144222' 
ADCP,ioos:station:wmo:42362:1,2008-01-06T08:00:00Z,27.7950,-90.6480,122.0,11.0,160.0,99.0,'11111222,11111222,11144222' 
ADCP,ioos:station:wmo:42362:1,2008-01-06T09:00:00Z,27.7950,-90.6480,122.0,9.0,160.0,99.0,'11111222,11111222,11144222' 
ADCP,ioos:station:wmo:42362:1,2008-01-06T10:00:00Z,27.7950,-90.6480,122.0,5.0,150.0,99.0,'11111222,11111222,11144222' 
ADCP,ioos:station:wmo:42362:1,2008-01-06T11:00:00Z,27.7950,-90.6480,122.0,5.0,160.0,99.0,'11111222,11111222,11144222' 
ADCP,ioos:station:wmo:42362:1,2008-01-06T12:00:00Z,27.7950,-90.6480,122.0,7.0,160.0,99.0,'11111222,11111222,11144222' 
ADCP,ioos:station:wmo:42362:1,2008-01-06T13:00:00Z,27.7950,-90.6480,122.0,10.0,150.0,99.0,'11111222,11111222,11144222' 
ADCP,ioos:station:wmo:42362:1,2008-01-06T14:00:00Z,27.7950,-90.6480,122.0,10.0,150.0,99.0,'11111222,11111222,11144222' 
ADCP,ioos:station:wmo:42362:1,2008-01-06T15:00:00Z,27.7950,-90.6480,122.0,10.0,150.0,99.0,'11111222,11111222,11144222' 
ADCP,ioos:station:wmo:42362:1,2008-01-06T16:00:00Z,27.7950,-90.6480,122.0,10.0,150.0,99.0,'11111222,11111222,11144222' 
ADCP,ioos:station:wmo:42362:1,2008-01-06T17:00:00Z,27.7950,-90.6480,122.0,10.0,150.0,99.0,'11111222,11111222,11144222' 
ADCP,ioos:station:wmo:42362:1,2008-01-06T18:00:00Z,27.7950,-90.6480,122.0,10.0,140.0,99.0,'11111222,11111222,11144222' 
ADCP,ioos:station:wmo:42362:1,2008-01-06T19:00:00Z,27.7950,-90.6480,122.0,10.0,150.0,99.0,'11111222,11111222,11144222' 
ADCP,ioos:station:wmo:42362:1,2008-01-06T20:00:00Z,27.7950,-90.6480,122.0,9.0,140.0,99.0,'11111222,11111222,11144222' 
ADCP,ioos:station:wmo:42362:1,2008-01-06T21:00:00Z,27.7950,-90.6480,122.0,8.0,130.0,99.0,'11111222,11111222,11144222' 
ADCP,ioos:station:wmo:42362:1,2008-01-06T22:00:00Z,27.7950,-90.6480,122.0,12.0,130.0,99.0,'11111222,11111222,11144222' 
ADCP,ioos:station:wmo:42362:1,2008-01-06T23:00:00Z,27.7950,-90.6480,122.0,10.0,120.0,99.0,'11111222,11111222,11144222' 
ADCP,ioos:station:wmo:42362:1,2008-01-07T00:00:00Z,27.7950,-90.6480,122.0,10.0,110.0,99.0,'11111222,11111222,11144222' 
ADCP,ioos:station:wmo:42362:1,2008-01-07T01:00:00Z,27.7950,-90.6480,122.0,10.0,110.0,99.0,'11111222,11111222,11144222' 
ADCP,ioos:station:wmo:42362:1,2008-01-07T02:00:00Z,27.7950,-90.6480,122.0,11.0,110.0,99.0,'11111222,11111222,11144222' 
ADCP,ioos:station:wmo:42362:1,2008-01-07T03:00:00Z,27.7950,-90.6480,122.0,11.0,110.0,99.0,'11111222,11111222,11144222' 
ADCP,ioos:station:wmo:42362:1,2008-01-07T04:00:00Z,27.7950,-90.6480,122.0,10.0,110.0,99.0,'11111222,11111222,11144222' 
ADCP,ioos:station:wmo:42362:1,2008-01-07T05:00:00Z,27.7950,-90.6480,122.0,11.0,110.0,99.0,'11111222,11111222,11144222' 
ADCP,ioos:station:wmo:42362:1,2008-01-07T06:00:00Z,27.7950,-90.6480,122.0,12.0,100.0,99.0,'11111222,11111222,11144222' 
ADCP,ioos:station:wmo:42362:1,2008-01-07T07:00:00Z,27.7950,-90.6480,122.0,12.0,110.0,99.0,'11111222,11111222,11144222' 
ADCP,ioos:station:wmo:42362:1,2008-01-07T08:00:00Z,27.7950,-90.6480,122.0,10.0,100.0,99.0,'11111222,11111222,11144222' 
ADCP,ioos:station:wmo:42362:1,2008-01-07T09:00:00Z,27.7950,-90.6480,122.0,9.0,110.0,99.0,'11111222,11111222,11144222' 
ADCP,ioos:station:wmo:42362:1,2008-01-07T10:00:00Z,27.7950,-90.6480,122.0,9.0,130.0,99.0,'11111222,11111222,11144222' 
ADCP,ioos:station:wmo:42362:1,2008-01-07T11:00:00Z,27.7950,-90.6480,122.0,9.0,120.0,99.0,'11111222,11111222,11144222' 
ADCP,ioos:station:wmo:42362:1,2008-01-07T12:00:00Z,27.7950,-90.6480,122.0,9.0,130.0,99.0,'11111222,11111222,11144222' 
ADCP,ioos:station:wmo:42362:1,2008-01-07T13:00:00Z,27.7950,-90.6480,122.0,10.0,120.0,99.0,'11111222,11111222,11144222' 
ADCP,ioos:station:wmo:42362:1,2008-01-07T14:00:00Z,27.7950,-90.6480,122.0,11.0,130.0,99.0,'11111222,11111222,11144222' 
ADCP,ioos:station:wmo:42362:1,2008-01-07T15:00:00Z,27.7950,-90.6480,122.0,10.0,120.0,99.0,'11111222,11111222,11144222' 
ADCP,ioos:station:wmo:42362:1,2008-01-07T16:00:00Z,27.7950,-90.6480,122.0,9.0,120.0,99.0,'11111222,11111222,11144222' 
ADCP,ioos:station:wmo:42362:1,2008-01-07T17:00:00Z,27.7950,-90.6480,122.0,9.0,110.0,99.0,'11111222,11111222,11144222' 
ADCP,ioos:station:wmo:42362:1,2008-01-07T18:00:00Z,27.7950,-90.6480,122.0,8.0,110.0,99.0,'11111222,11111222,11144222' 
ADCP,ioos:station:wmo:42362:1,2008-01-07T19:00:00Z,27.7950,-90.6480,122.0,5.0,100.0,99.0,'11111222,11111222,11144222' 
ADCP,ioos:station:wmo:42362:1,2008-01-07T20:00:00Z,27.7950,-90.6480,122.0,7.0,90.0,99.0,'11111222,11111222,11144222' 
ADCP,ioos:station:wmo:42362:1,2008-01-07T21:00:00Z,27.7950,-90.6480,122.0,6.0,100.0,99.0,'11111222,11111222,11144222' 
ADCP,ioos:station:wmo:42362:1,2008-01-07T22:00:00Z,27.7950,-90.6480,122.0,8.0,120.0,99.0,'11111222,11111222,11144222' 
ADCP,ioos:station:wmo:42362:1,2008-01-07T23:00:00Z,27.7950,-90.6480,122.0,9.0,130.0,99.0,'11111222,11111222,11144222' 
ADCP,ioos:station:wmo:42362:1,2008-01-08T00:00:00Z,27.7950,-90.6480,122.0,9.0,130.0,99.0,'11111222,11111222,11144222' 
ADCP,ioos:station:wmo:42362:1,2008-01-08T01:00:00Z,27.7950,-90.6480,122.0,9.0,130.0,99.0,'11111222,11111222,11144222' 
ADCP,ioos:station:wmo:42362:1,2008-01-08T02:00:00Z,27.7950,-90.6480,122.0,8.0,120.0,99.0,'11111222,11111222,11144222' 
ADCP,ioos:station:wmo:42362:1,2008-01-08T03:00:00Z,27.7950,-90.6480,122.0,7.0,120.0,99.0,'11111222,11111222,11144222' 
ADCP,ioos:station:wmo:42362:1,2008-01-08T04:00:00Z,27.7950,-90.6480,122.0,8.0,130.0,99.0,'11111222,11111222,11144222' 
ADCP,ioos:station:wmo:42362:1,2008-01-08T05:00:00Z,27.7950,-90.6480,122.0,10.0,140.0,99.0,'11111222,11111222,11144222' 
ADCP,ioos:station:wmo:42362:1,2008-01-08T06:00:00Z,27.7950,-90.6480,122.0,16.0,130.0,99.0,'11111222,11111222,11144222' 
ADCP,ioos:station:wmo:42362:1,2008-01-08T07:00:00Z,27.7950,-90.6480,122.0,18.0,140.0,99.0,'11111222,11111222,11144222' 
ADCP,ioos:station:wmo:42362:1,2008-01-08T08:00:00Z,27.7950,-90.6480,122.0,15.0,130.0,99.0,'11111222,11111222,11144222' 
ADCP,ioos:station:wmo:42362:1,2008-01-08T09:00:00Z,27.7950,-90.6480,122.0,13.0,100.0,99.0,'11111222,11111222,11144222' 
ADCP,ioos:station:wmo:42362:1,2008-01-08T10:00:00Z,27.7950,-90.6480,122.0,15.0,130.0,99.0,'11111222,11111222,11144222' 
ADCP,ioos:station:wmo:42362:1,2008-01-08T11:00:00Z,27.7950,-90.6480,122.0,15.0,130.0,99.0,'11111222,11111222,11144222' 
ADCP,ioos:station:wmo:42362:1,2008-01-08T12:00:00Z,27.7950,-90.6480,122.0,15.0,130.0,99.0,'11111222,11111222,11144222' 
ADCP,ioos:station:wmo:42362:1,2008-01-08T13:00:00Z,27.7950,-90.6480,122.0,11.0,130.0,99.0,'11111222,11111222,11144222' 
ADCP,ioos:station:wmo:42362:1,2008-01-08T14:00:00Z,27.7950,-90.6480,122.0,11.0,120.0,99.0,'11111222,11111222,11144222' 
ADCP,ioos:station:wmo:42362:1,2008-01-08T15:00:00Z,27.7950,-90.6480,122.0,15.0,130.0,99.0,'11111222,11111222,11144222' 
ADCP,ioos:station:wmo:42362:1,2008-01-08T16:00:00Z,27.7950,-90.6480,122.0,13.0,150.0,99.0,'11111222,11111222,11144222' 
ADCP,ioos:station:wmo:42362:1,2008-01-08T17:00:00Z,27.7950,-90.6480,122.0,13.0,150.0,99.0,'11111222,11111222,11144222' 
ADCP,ioos:station:wmo:42362:1,2008-01-08T18:00:00Z,27.7950,-90.6480,122.0,11.0,150.0,99.0,'11111222,11111222,11144222' 
ADCP,ioos:station:wmo:42362:1,2008-01-08T19:00:00Z,27.7950,-90.6480,122.0,13.0,150.0,99.0,'11111222,11111222,11144222' 
ADCP,ioos:station:wmo:42362:1,2008-01-08T20:00:00Z,27.7950,-90.6480,122.0,8.0,160.0,99.0,'11111222,11111222,11144222' 
ADCP,ioos:station:wmo:42362:1,2008-01-08T21:00:00Z,27.7950,-90.6480,122.0,6.0,150.0,99.0,'11111222,11111222,11144222' 
ADCP,ioos:station:wmo:42362:1,2008-01-08T22:00:00Z,27.7950,-90.6480,122.0,5.0,160.0,99.0,'11111222,11111222,11144222' 
ADCP,ioos:station:wmo:42362:1,2008-01-08T23:00:00Z,27.7950,-90.6480,122.0,5.0,180.0,99.0,'11111222,11111222,11144222' 
ADCP,ioos:station:wmo:42362:1,2008-01-09T00:00:00Z,27.7950,-90.6480,122.0,4.0,180.0,99.0,'11111222,11111222,11144222' 
ADCP,ioos:station:wmo:42362:1,2008-01-09T01:00:00Z,27.7950,-90.6480,122.0,3.0,180.0,99.0,'11111222,11111222,11144222' 
ADCP,ioos:station:wmo:42362:1,2008-01-09T02:00:00Z,27.7950,-90.6480,122.0,3.0,160.0,99.0,'11111222,11111222,11144222' 
ADCP,ioos:station:wmo:42362:1,2008-01-09T03:00:00Z,27.7950,-90.6480,122.0,3.0,160.0,99.0,'11111222,11111222,11144222' 
ADCP,ioos:station:wmo:42362:1,2008-01-09T04:00:00Z,27.7950,-90.6480,122.0,4.0,150.0,99.0,'11111222,11111222,11144222' 
ADCP,ioos:station:wmo:42362:1,2008-01-09T05:00:00Z,27.7950,-90.6480,122.0,5.0,160.0,99.0,'11111222,11111222,11144222' 
ADCP,ioos:station:wmo:42362:1,2008-01-09T06:00:00Z,27.7950,-90.6480,122.0,7.0,160.0,99.0,'11111222,11111222,11144222' 
ADCP,ioos:station:wmo:42362:1,2008-01-09T07:00:00Z,27.7950,-90.6480,122.0,5.0,160.0,99.0,'11111222,11111222,11144222' 